Cherokee, IA

3:17 AM CDT on July 21, 2017 (GMT -0500)
Cherokee Municipal

Weather History for KCKP - April, 2012

Change the Weather History Date:

Monday, April 23, 2012

  Actual Average Record
Temperature  
Mean Temperature 51 °F -  
Max Temperature 71 °F 62 °F 94 °F (1980)
Min Temperature 31 °F 37 °F 20 °F (1956)
Degree Days  
Heating Degree Days 14    
Growing Degree Days 1 (Base 50)    
Moisture  
Dew Point 31 °F    
Average Humidity 56    
Maximum Humidity 98    
Minimum Humidity 15    
Precipitation  
Precipitation 0.00 in - - ()
Sea Level Pressure  
Sea Level Pressure 30.10 in    
Wind  
Wind Speed 2 mph (SSW)    
Max Wind Speed 10 mph    
Max Gust Speed 18 mph    
Visibility 8 miles    
Events Fog    
Averages and records for this station are not official NWS values.
T = Trace of Precipitation, MM = Missing Value Source: NWS Daily Summary

Daily Weather History Graph

Daily Weather History Graph

Search for Another Location

Airport or City:

Trip Planner

Search our weather history database for the weather conditions in past years. The results will help you decide how hot, cold, wet, or windy it might be!

Date:

Astronomy

Apr. 23, 2012 Rise Set
Actual Time 6:27 AM CDT 8:14 PM CDT
Civil Twilight 5:57 AM CDT 8:44 PM CDT
Nautical Twilight 5:20 AM CDT 9:21 PM CDT
Astronomical Twilight 4:41 AM CDT 10:00 PM CDT
Moon 7:36 AM CDT (4/23) 10:48 PM CDT (4/23)
Length of Visible Light 14h 47m
Length of Day
13h 46m
Waxing Crescent, 5% of the Moon is Illuminated
Apr 23
Waxing Crescent
Apr 29
First Quarter
May 5
Full
May 12
Last Quarter
May 20
New

Hourly Weather History & Observations

Time (CDT) Temp. Dew Point Humidity Pressure Visibility Wind Dir Wind Speed Gust Speed Precip Events Conditions
12:15 AM 39.2 °F 36.7 °F 91% 30.26 in 10.0 mi Calm Calm - N/A   Clear
12:35 AM 37.2 °F 35.1 °F 92% 30.26 in 10.0 mi Calm Calm - N/A   Clear
12:55 AM 37.8 °F 35.8 °F 93% 30.25 in 10.0 mi Calm Calm - N/A   Clear
1:15 AM 37.0 °F 34.9 °F 92% 30.25 in 7.0 mi Calm Calm - N/A   Clear
1:35 AM 36.7 °F 34.7 °F 93% 30.25 in 7.0 mi Calm Calm - N/A   Clear
1:55 AM 35.6 °F 33.6 °F 92% 30.25 in 1.5 mi Calm Calm - N/A   Scattered Clouds
2:15 AM 35.1 °F 33.3 °F 93% 30.24 in 0.5 mi Calm Calm - N/A Fog Fog
2:35 AM 34.9 °F 33.1 °F 93% 30.24 in 1.2 mi Calm Calm - N/A   Mostly Cloudy
2:55 AM 34.0 °F 32.4 °F 94% 30.23 in 1.0 mi Calm Calm - N/A   Mostly Cloudy
3:15 AM 32.9 °F 32.0 °F 96% 30.23 in 0.2 mi Calm Calm - N/A Fog Fog
3:35 AM 33.1 °F 32.0 °F 96% 30.23 in 0.8 mi Calm Calm - N/A   Overcast
3:55 AM 32.7 °F 31.6 °F 96% 30.23 in 1.8 mi Calm Calm - N/A   Scattered Clouds
4:15 AM 32.4 °F 31.8 °F 98% 30.23 in 5.0 mi Calm Calm - N/A   Clear
4:35 AM 31.6 °F 30.4 °F 95% 30.22 in 5.0 mi Calm Calm - N/A   Clear
4:55 AM 31.5 °F 30.2 °F 95% 30.22 in 1.2 mi Calm Calm - N/A   Mist
5:15 AM 31.6 °F 30.6 °F 96% 30.21 in 3.0 mi Calm Calm - N/A   Clear
5:35 AM 32.0 °F 30.9 °F 96% 30.21 in 1.0 mi Calm Calm - N/A   Mist
5:55 AM 32.0 °F 30.9 °F 96% 30.21 in 5.0 mi Calm Calm - N/A   Clear
6:15 AM 31.8 °F 30.6 °F 95% 30.21 in 2.0 mi Calm Calm - N/A   Clear
6:35 AM 31.8 °F 30.7 °F 96% 30.21 in 4.0 mi Calm Calm - N/A   Clear
6:55 AM 32.0 °F 30.9 °F 96% 30.21 in 7.0 mi Calm Calm - N/A   Clear
7:15 AM 31.8 °F 30.7 °F 96% 30.22 in 7.0 mi Calm Calm - N/A   Clear
7:35 AM 32.9 °F 32.0 °F 96% 30.22 in 7.0 mi Calm Calm - N/A   Clear
7:55 AM 35.1 °F 33.8 °F 95% 30.22 in 10.0 mi Calm Calm - N/A   Clear
8:15 AM 37.2 °F 35.8 °F 95% 30.21 in 10.0 mi Calm Calm - N/A   Clear
8:35 AM 40.3 °F 38.7 °F 94% 30.21 in 10.0 mi Calm Calm - N/A   Clear
8:55 AM 43.3 °F 41.7 °F 94% 30.20 in 10.0 mi Calm Calm - N/A   Clear
9:15 AM 47.1 °F 43.0 °F 86% 30.20 in 10.0 mi Calm Calm - N/A   Clear
9:35 AM 51.1 °F 43.9 °F 76% 30.20 in 10.0 mi Calm Calm - N/A   Clear
9:55 AM 54.9 °F 40.8 °F 59% 30.19 in 10.0 mi WSW 4.6 mph - N/A   Clear
10:15 AM 57.2 °F 36.5 °F 46% 30.19 in 10.0 mi WSW 6.9 mph - N/A   Clear
10:35 AM 58.5 °F 34.2 °F 40% 30.18 in 10.0 mi SW 4.6 mph - N/A   Clear
10:55 AM 60.1 °F 31.3 °F 34% 30.18 in 10.0 mi WSW 5.8 mph - N/A   Clear
11:15 AM 61.0 °F 30.6 °F 32% 30.17 in 10.0 mi SW 5.8 mph - N/A   Clear
11:35 AM 62.1 °F 27.1 °F 27% 30.16 in 10.0 mi West 9.2 mph - N/A   Clear
11:55 AM 62.8 °F 28.0 °F 27% 30.16 in 10.0 mi West 6.9 mph - N/A   Clear
12:15 PM 63.7 °F 26.4 °F 24% 30.15 in 10.0 mi SSW 3.5 mph - N/A   Clear
12:35 PM 64.4 °F 27.3 °F 25% 30.14 in 10.0 mi Calm Calm - N/A   Clear
12:55 PM 64.6 °F 26.8 °F 24% 30.12 in 10.0 mi SW 8.1 mph - N/A   Clear
1:35 PM 66.2 °F 25.5 °F 22% 30.11 in 10.0 mi SSW 3.5 mph - N/A   Clear
1:55 PM 66.4 °F 25.0 °F 21% 30.09 in 10.0 mi South 6.9 mph 16.1 mph N/A   Clear
2:15 PM 67.5 °F 24.4 °F 20% 30.08 in 10.0 mi SW 10.4 mph - N/A   Clear
2:35 PM 68.0 °F 23.9 °F 19% 30.07 in 10.0 mi SW 8.1 mph - N/A   Clear
2:55 PM 68.5 °F 23.4 °F 18% 30.06 in 10.0 mi SW 8.1 mph - N/A   Clear
3:15 PM 68.5 °F 23.4 °F 18% 30.04 in 10.0 mi SW 5.8 mph - N/A   Clear
3:35 PM 69.3 °F 21.9 °F 17% 30.03 in 10.0 mi SSW 9.2 mph 17.3 mph N/A   Clear
3:55 PM 69.4 °F 22.5 °F 17% 30.02 in 10.0 mi SSW 8.1 mph - N/A   Clear
4:15 PM 70.5 °F 23.5 °F 17% 30.00 in 10.0 mi WSW 10.4 mph 18.4 mph N/A   Clear
4:35 PM 69.8 °F 20.1 °F 15% 30.00 in 10.0 mi SW 4.6 mph 9.2 mph N/A   Clear
4:55 PM 70.7 °F 20.5 °F 15% 29.99 in 10.0 mi West 8.1 mph - N/A   Clear
5:15 PM 70.7 °F 21.4 °F 16% 29.98 in 10.0 mi WSW 6.9 mph - N/A   Clear
5:35 PM 70.7 °F 20.1 °F 15% 29.98 in 10.0 mi Calm Calm - N/A   Clear
5:55 PM 71.4 °F 22.6 °F 16% 29.97 in 10.0 mi WSW 8.1 mph - N/A   Clear
6:15 PM 70.9 °F 22.6 °F 16% 29.96 in 10.0 mi SW 8.1 mph - N/A   Clear
6:35 PM 70.7 °F 23.0 °F 17% 29.95 in 10.0 mi SW 9.2 mph - N/A   Clear
6:55 PM 69.8 °F 24.1 °F 18% 29.94 in 10.0 mi SSW 9.2 mph - N/A   Clear
7:15 PM 68.9 °F 25.2 °F 19% 29.93 in 10.0 mi SSW 8.1 mph - N/A   Clear
7:35 PM 66.9 °F 28.6 °F 24% 29.92 in 10.0 mi SSW 5.8 mph - N/A   Clear
7:55 PM 65.3 °F 28.9 °F 26% 29.91 in 10.0 mi South 4.6 mph - N/A   Clear
8:15 PM 64.2 °F 29.1 °F 27% 29.91 in 10.0 mi SSE 5.8 mph - N/A   Clear
8:35 PM 62.4 °F 29.7 °F 29% 29.90 in 10.0 mi SSE 5.8 mph - N/A   Clear
8:55 PM 61.0 °F 30.2 °F 31% 29.89 in 10.0 mi SSE 5.8 mph - N/A   Clear
9:15 PM 57.0 °F 33.1 °F 40% 29.89 in 10.0 mi South 3.5 mph - N/A   Clear
9:35 PM 55.2 °F 37.0 °F 50% 29.89 in 10.0 mi South 3.5 mph - N/A   Clear
9:55 PM 52.9 °F 36.7 °F 54% 29.89 in 10.0 mi Calm Calm - N/A   Clear
10:15 PM 54.0 °F 34.3 °F 47% 29.88 in 10.0 mi Calm Calm - N/A   Clear
10:35 PM 52.2 °F 38.8 °F 60% 29.88 in 10.0 mi Calm Calm - N/A   Clear
10:55 PM 52.5 °F 37.4 °F 56% 29.87 in 10.0 mi Calm Calm - N/A   Clear
11:15 PM 53.2 °F 34.0 °F 48% 29.86 in 10.0 mi South 5.8 mph - N/A   Clear
11:35 PM 52.0 °F 36.5 °F 56% 29.86 in 10.0 mi South 3.5 mph - N/A   Clear
11:55 PM 54.5 °F 34.3 °F 47% 29.85 in 10.0 mi South 5.8 mph - N/A   Clear